Regional Weather Roundup
Issued by NWS Memphis, TN

Home | Current Version | Previous Version | Text Only | Print | Product List | Glossary On
Versions: 1 2 3 4 5 6 7 8 9 10 11 12 13 14 15 16 17 18 19 20 21 22 23 24 25 26 27 28 29 30 31 32 33 34 35 36 37 38 39 40 41 42 43 44 45 46 47 48 49 50
000
ASUS44 KMEG 240800
RWRMEG
MEMPHIS CWA HOURLY WEATHER ROUNDUP
NATIONAL WEATHER SERVICE MEMPHIS TN
300 AM CDT THU APR 24 2014

...WEST TENNESSEE...

CITY           SKY/WX    TMP DP  RH WIND       PRES   REMARKS
MEMPHIS INTL   CLEAR     56  40  55 E5        29.91F
NWS MEMPHIS      N/A     50 N/A N/A MISG        N/A
JACKSON        PTCLDY    54  36  50 CALM      29.94F
LEXINGTON      CLEAR     45  39  81 CALM      29.95S
DYERSBURG      PTCLDY    54  34  47 E5        29.94S
UNION CITY     CLEAR     48  37  66 CALM      29.93F


...EASTERN ARKANSAS...

CITY           SKY/WX    TMP DP  RH WIND       PRES   REMARKS
JONESBORO      MOCLDY    53  42  66 NE5       29.90F
WEST MEMPHIS   PTCLDY    57  41  55 SE7       29.90F
BATESVILLE     MOCLDY    57  43  58 E7        29.88F
WALNUT RIDGE   MOCLDY    54  39  58 E8        29.89S
BLYTHEVILLE    PTCLDY    57  38  48 SE9       29.92F
SEARCY         PTCLDY    50  48  92 CALM      29.90S
STUTTGART      CLEAR     57  46  67 E3        29.89R
PINE BLUFF     PTCLDY    56  49  77 CALM      29.88R
MONTICELLO     CLEAR     59  46  62 CALM      29.87S


...NORTH MISSISSIPPI...

CITY           SKY/WX    TMP DP  RH WIND       PRES   REMARKS
TUPELO         CLEAR     46  43  89 NE3       29.93F
TUNICA         CLEAR     54  45  71 E5        29.92S
GRENADA        CLEAR     46  46 100 CALM      29.92R
GREENWOOD      CLEAR     55  45  68 CALM      29.90F
STARKVILLE     FAIR      48  45  87 CALM      29.93S
GOLDEN TRIANGL CLEAR     52  45  76 E3        29.96S


...SOUTHEAST MISSOURI...

CITY           SKY/WX    TMP DP  RH WIND       PRES   REMARKS
WEST PLAINS    CLOUDY    55  37  50 SE7       29.89F
POPLAR BLUFF   MOCLDY    51  41  68 CALM      29.91F
CAPE GIRARDEAU MOCLDY    52  38  58 SE8       29.93S


...NORTHWEST ALABAMA...

CITY           SKY/WX    TMP DP  RH WIND       PRES   REMARKS
MUSCLE SHOALS  CLEAR     46  40  79 CALM      29.97R


...MIDDLE TENNESSEE...

CITY           SKY/WX    TMP DP  RH WIND       PRES   REMARKS
NASHVILLE      CLEAR     48  37  65 CALM      29.98S
CLARKSVILLE    CLEAR     48  35  60 E5        29.98S
COLUMBIA       CLEAR     43  43 100 CALM      29.96S


...WESTERN KENTUCKY...

CITY           SKY/WX    TMP DP  RH WIND       PRES   REMARKS
PADUCAH        PTCLDY    54  37  52 SE8       29.94F
FORT CAMPBELL  CLEAR     50  36  58 E6        29.98S


...CENTRAL ARKANSAS...

CITY           SKY/WX    TMP DP  RH WIND       PRES   REMARKS
LITTLE ROCK    MOCLDY    56  48  74 CALM      29.88S


SKY/WX REPORTED AS FAIR MEANS FEW OR NO CLOUDS BELOW
12 THOUSAND FEET.




USA.gov is the U.S. government's official web portal to all federal, state and local government web resources and services.